Location: Unspecified
(41.1637°N, 24.2901°E)
Time: 13:23:00
(UTC+01:00)

ISS - Pass Details

Date: 02 December 2021
Orbit: 417 x 423 km, 51.6° (Epoch: 29 November)

Event Time Altitude Azimuth Distance (km) Brightness Sun altitude
Rises 17:58:50 0° 310° (NW) 2,380 0.7 -22.8°
Reaches altitude 10° 18:01:05 10° 320° (NW) 1,512 -0.6 -23.2°
Enters shadow 18:02:12 18° 331° (NNW) 1,120 -1.4 -23.4°
